• In Austria
  • List of Countries
  • For 7 days
  • Water Temperature
  • Satellite Maps
  • Weather Map
  • News
  • Weather Widgets
  • user-avatar
    Login

    Hourly Weather Stepanakert

    Today, 17 August, Friday

    Time Temperature Precipitation Wind Pressure Humidity
    00:00 +22°C° 0 mm 1 mps 692 mmHg 66%
    01:00 +22°C° 0 mm 1 mps 692 mmHg 66%
    02:00 +22°C° 0 mm 1 mps 692 mmHg 66%
    03:00 +21°C° 0 mm 1 mps 692 mmHg 67%
    04:00 +22°C° 0 mm 1 mps 692 mmHg 65%
    05:00 +22°C° 0 mm 1 mps 692 mmHg 64%
    06:00 +22°C° 0 mm 1 mps 692 mmHg 63%
    07:00 +24°C° 0 mm 1 mps 692 mmHg 56%
    08:00 +26°C° 0 mm 2 mps 692 mmHg 49%
    09:00 +28°C° 0 mm 2 mps 692 mmHg 42%
    10:00 +29°C° 0 mm 2 mps 692 mmHg 39%
    11:00 +31°C° 0 mm 3 mps 692 mmHg 36%
    12:00 +33°C° 0 mm 3 mps 692 mmHg 34%
    13:00 +33°C° 0 mm 3 mps 691 mmHg 33%
    14:00 +34°C° 0 mm 3 mps 691 mmHg 32%
    15:00 +34°C° 0 mm 3 mps 690 mmHg 32%
    16:00 +33°C° 0 mm 3 mps 690 mmHg 34%
    17:00 +31°C° 0 mm 3 mps 690 mmHg 37%
    18:00 +31°C° 0 mm 3 mps 690 mmHg 39%
    19:00 +29°C° 0 mm 2 mps 690 mmHg 44%
    20:00 +27°C° 0 mm 2 mps 690 mmHg 49%
    21:00 +25°C° 0 mm 2 mps 690 mmHg 54%
    22:00 +25°C° 0 mm 2 mps 689 mmHg 55%
    23:00 +24°C° 0 mm 2 mps 689 mmHg 56%

    Tomorrow, 18 August, Saturday

    Time Temperature Precipitation Wind Pressure Humidity
    00:00 +24°C° 0 mm 1 mps 689 mmHg 58%
    01:00 +23°C° 0 mm 1 mps 689 mmHg 59%
    02:00 +23°C° 0 mm 1 mps 689 mmHg 60%
    03:00 +23°C° 0 mm 1 mps 689 mmHg 61%
    04:00 +23°C° 0 mm 1 mps 689 mmHg 60%
    05:00 +23°C° 0 mm 1 mps 689 mmHg 60%
    06:00 +23°C° 0 mm 1 mps 689 mmHg 59%
    07:00 +25°C° 0 mm 2 mps 689 mmHg 52%
    08:00 +27°C° 0 mm 2 mps 690 mmHg 45%
    09:00 +29°C° 0 mm 2 mps 690 mmHg 38%
    10:00 +30°C° 0 mm 3 mps 690 mmHg 36%
    11:00 +31°C° 0 mm 3 mps 689 mmHg 33%
    12:00 +33°C° 0 mm 4 mps 689 mmHg 31%
    13:00 +34°C° 0 mm 4 mps 689 mmHg 31%
    14:00 +34°C° 0 mm 4 mps 688 mmHg 30%
    15:00 +34°C° 0 mm 4 mps 688 mmHg 30%
    16:00 +33°C° 0 mm 4 mps 688 mmHg 33%
    17:00 +32°C° 0 mm 4 mps 688 mmHg 36%
    18:00 +30°C° 0 mm 4 mps 687 mmHg 39%
    19:00 +28°C° 0 mm 3 mps 688 mmHg 45%
    20:00 +27°C° 0 mm 3 mps 688 mmHg 50%
    21:00 +25°C° 0 mm 2 mps 688 mmHg 56%
    22:00 +24°C° 0 mm 2 mps 688 mmHg 57%
    23:00 +24°C° 0 mm 2 mps 688 mmHg 58%

    Day after tomorrow, 19 August, Sunday

    Time Temperature Precipitation Wind Pressure Humidity
    00:00 +23°C° 0 mm 2 mps 688 mmHg 59%
    01:00 +23°C° 0 mm 2 mps 688 mmHg 59%
    02:00 +23°C° 0 mm 2 mps 689 mmHg 59%
    03:00 +21°C° 0 mm 2 mps 689 mmHg 59%
    04:00 +23°C° 0 mm 2 mps 689 mmHg 57%
    05:00 +23°C° 0 mm 2 mps 689 mmHg 55%
    06:00 +23°C° 0 mm 2 mps 689 mmHg 53%
    07:00 +25°C° 0 mm 2 mps 689 mmHg 48%
    08:00 +27°C° 0 mm 2 mps 690 mmHg 43%
    09:00 +29°C° 0 mm 3 mps 690 mmHg 38%
    10:00 +30°C° 0 mm 3 mps 690 mmHg 36%
    11:00 +32°C° 0 mm 4 mps 690 mmHg 33%
    12:00 +33°C° 0 mm 5 mps 690 mmHg 31%
    13:00 +33°C° 0.1 mm 5 mps 690 mmHg 31%
    14:00 +33°C° 0.1 mm 5 mps 689 mmHg 31%
    15:00 +33°C° 0.1 mm 5 mps 689 mmHg 31%
    16:00 +32°C° 0 mm 6 mps 689 mmHg 33%
    17:00 +30°C° 0 mm 6 mps 689 mmHg 35%
    18:00 +29°C° 0 mm 6 mps 689 mmHg 38%
    19:00 +27°C° 0 mm 5 mps 690 mmHg 41%
    20:00 +25°C° 0 mm 4 mps 690 mmHg 45%
    21:00 +22°C° 0 mm 3 mps 690 mmHg 49%
    22:00 +22°C° 0 mm 3 mps 690 mmHg 51%
    23:00 +21°C° 0 mm 3 mps 690 mmHg 52%

    20 August, Monday

    Time Temperature Precipitation Wind Pressure Humidity
    00:00 +20°C° 0 mm 2 mps 690 mmHg 54%
    01:00 +20°C° 0 mm 2 mps 691 mmHg 56%
    02:00 +20°C° 0 mm 2 mps 691 mmHg 57%
    03:00 +19°C° 0 mm 2 mps 691 mmHg 59%
    04:00 +19°C° 0 mm 2 mps 691 mmHg 60%
    05:00 +19°C° 0 mm 2 mps 691 mmHg 60%
    06:00 +19°C° 0 mm 2 mps 692 mmHg 61%
    07:00 +21°C° 0 mm 3 mps 692 mmHg 56%
    08:00 +22°C° 0 mm 4 mps 692 mmHg 51%
    09:00 +25°C° 0 mm 4 mps 693 mmHg 46%
    10:00 +26°C° 0 mm 4 mps 693 mmHg 43%
    11:00 +27°C° 0 mm 5 mps 693 mmHg 40%
    12:00 +28°C° 0 mm 5 mps 693 mmHg 37%
    13:00 +29°C° 0 mm 5 mps 692 mmHg 36%
    14:00 +29°C° 0 mm 5 mps 692 mmHg 36%
    15:00 +29°C° 0 mm 5 mps 692 mmHg 35%
    16:00 +28°C° 0 mm 5 mps 692 mmHg 38%
    17:00 +27°C° 0 mm 4 mps 692 mmHg 40%
    18:00 +26°C° 0 mm 4 mps 692 mmHg 43%
    19:00 +24°C° 0 mm 3 mps 692 mmHg 48%
    20:00 +22°C° 0 mm 3 mps 692 mmHg 54%
    21:00 +20°C° 0 mm 2 mps 693 mmHg 59%
    22:00 +20°C° 0 mm 2 mps 693 mmHg 61%
    23:00 +20°C° 0 mm 1 mps 693 mmHg 62%

    21 August, Tuesday

    Time Temperature Precipitation Wind Pressure Humidity
    00:00 +20°C° 0 mm 1 mps 693 mmHg 64%
    01:00 +19°C° 0 mm 1 mps 692 mmHg 65%
    02:00 +19°C° 0 mm 1 mps 692 mmHg 66%
    03:00 +19°C° 0 mm 1 mps 692 mmHg 67%
    04:00 +19°C° 0 mm 1 mps 693 mmHg 65%
    05:00 +19°C° 0 mm 1 mps 693 mmHg 63%
    06:00 +19°C° 0 mm 1 mps 693 mmHg 61%
    07:00 +21°C° 0 mm 1 mps 693 mmHg 52%
    08:00 +24°C° 0 mm 2 mps 694 mmHg 44%
    09:00 +26°C° 0 mm 2 mps 694 mmHg 35%
    10:00 +27°C° 0 mm 3 mps 694 mmHg 33%
    11:00 +28°C° 0 mm 3 mps 694 mmHg 30%
    12:00 +29°C° 0 mm 3 mps 693 mmHg 28%
    13:00 +30°C° 0 mm 3 mps 693 mmHg 27%
    14:00 +30°C° 0 mm 3 mps 693 mmHg 27%
    15:00 +32°C° 0 mm 4 mps 692 mmHg 27%
    16:00 +30°C° 0 mm 3 mps 693 mmHg 29%
    17:00 +29°C° 0 mm 3 mps 693 mmHg 32%
    18:00 +28°C° 0 mm 3 mps 693 mmHg 35%
    19:00 +26°C° 0 mm 2 mps 693 mmHg 39%
    20:00 +24°C° 0 mm 2 mps 693 mmHg 44%
    21:00 +23°C° 0 mm 2 mps 693 mmHg 49%
    22:00 +21°C° 0 mm 2 mps 693 mmHg 51%
    23:00 +21°C° 0 mm 2 mps 693 mmHg 53%

    22 August, Wednesday

    Time Temperature Precipitation Wind Pressure Humidity
    00:00 +20°C° 0 mm 2 mps 693 mmHg 55%
    01:00 +21°C° 0 mm 1 mps 693 mmHg 55%
    02:00 +21°C° 0 mm 1 mps 693 mmHg 56%
    03:00 +20°C° 0 mm 1 mps 693 mmHg 56%
    04:00 +21°C° 0 mm 1 mps 693 mmHg 56%
    05:00 +21°C° 0 mm 1 mps 693 mmHg 56%
    06:00 +21°C° 0 mm 1 mps 694 mmHg 55%
    07:00 +23°C° 0 mm 2 mps 694 mmHg 50%
    08:00 +25°C° 0 mm 2 mps 694 mmHg 45%
    09:00 +27°C° 0 mm 2 mps 694 mmHg 39%
    10:00 +28°C° 0 mm 3 mps 694 mmHg 37%
    11:00 +29°C° 0 mm 3 mps 694 mmHg 34%
    12:00 +30°C° 0 mm 3 mps 694 mmHg 32%
    13:00 +32°C° 0 mm 4 mps 694 mmHg 32%
    14:00 +32°C° 0 mm 4 mps 693 mmHg 32%
    15:00 +32°C° 0 mm 4 mps 693 mmHg 32%
    16:00 +30°C° 0 mm 4 mps 693 mmHg 35%
    17:00 +29°C° 0 mm 4 mps 693 mmHg 38%
    18:00 +28°C° 0 mm 4 mps 693 mmHg 41%
    19:00 +26°C° 0 mm 4 mps 694 mmHg 45%
    20:00 +25°C° 0 mm 3 mps 694 mmHg 50%
    21:00 +23°C° 0 mm 2 mps 694 mmHg 54%
    22:00 +21°C° 0 mm 2 mps 694 mmHg 55%
    23:00 +21°C° 0 mm 2 mps 694 mmHg 56%
    Show more